Showing default

MANDRAKE 2 ABLE, 48907

Orbit data source: Space-Track

MANDRAKE 2 ABLE, 48907 is an American payload satellite in SSO that was launched on Wed, 30 Jun 2021 UTC via an FALCON 9 launch vehicle from the Air Force Eastern Test Range (AFETR). Payload-class satellites include a variety of spacecraft equipped with specific instruments for various scientific and technological missions. These include communications satellites like Starlink; space stations such as the ISS; scientific satellites like the Hubble; Earth observation satellites from companies like Planet Labs, Umbra, and HawkEye 360; GPS; miniature CubeSats for education and research; and military/defense satellites.

Loading next visibility...
Identifier
48907, 2021-059AE
Orbit
SSO
Country
Flag of USUS
Related business
Manufacturer
Astro Digital
Mission
Operational Defense Communications
Bus & Motor
CORVUS-XL, Unknown motor
Mass
23 kg wet, 23 kg dry
Launch date (UTC)
2021-06-30 (4 years ago)
Launch vehicle
FALCON 9
Launch site
Air Force Eastern Test Range (AFETR)
Object type
Payload
Rocket body
Debris
Shape & HBR
Box + 1 Pan, 1.5 m
Radar Cross Section
0.375 m², Medium (>0.1 m² and < 1m²)

Expand to show TLE details & history
Last TLE update: 1 day ago

TLE from 1 day ago
0 MANDRAKE 2 ABLE
1 48907U 21059AE  25312.72248741  .00027089  00000-0  57779-3 0  9997
2 48907  97.6990 122.4154 0006180  84.7190 275.4763 15.44855808242979
Epoch: 2025-11-08T17:20Z
TLE epoch observation values (Epoch: 2025-11-08T17:20:22.912Z)
Latitude
0.00002°
Longitude
174.17191°
Altitude
434.518 km
Speed
7.651 km/s
True Right ascension
08h 09m 39s
True Declination
0° 00' 00"
Sunlit
Object was in daylight at epoch
Visualization orbit readout
Latitude
Unknown
Longitude
Unknown
Altitude
Unknown
Speed
Unknown
Apparent Right ascension
Unknown
Apparent Declination
Unknown
Sunlit
N/A
Visualization observer readout
Local Sidereal Time
17:49:32
Azimuth
Unknown
Elevation
Unknown
Doppler factor
Unknown
Orbital elements
Apogee altitude
432.954 km
Perigee altitude
424.541 km
Semi-major axis
6,806.884 km
Eccentricity
0.00062
Inclination
97.699°
RAAN
122.4154°
Arg. of periapsis
84.719°
True anomaly
275.4058°
Mean anomaly
275.4763°
Eccentric anomaly
275.44105°
Mean motion
3.86474 °/min
Orbital period
93.15 mins
BSTAR
0.00057779
Loading maneuver chart data...
Computing Atmospheric mass density...

Documentation

Showing up to 5 results
|